Location: Home
(42.5358°N, 72.7383°W)
Time: 16:42:11
(UTC-04:00)

Explorer 11/Cluster Stage 4 - Pass Details

Date: 09 August 2024
Orbit: 464 x 1208 km, 28.8° (Epoch: 19 September)

Event Time Altitude Azimuth Distance (km) Brightness Sun altitude
Rises 03:24:07 0° 254° (WSW) 3,822 - -22.6°
Reaches altitude 10° 03:27:18 10° 241° (WSW) 2,965 - -22.2°
Maximum altitude 03:33:01 24° 191° (SSW) 2,214 - -21.6°
Exits shadow 03:34:21 23° 177° (S) 2,282 8.5 -21.4°
Drops below altitude 10° 03:39:03 10° 142° (SE) 3,141 9.5 -20.8°
Sets 03:42:33 0° 130° (SE) 4,098 10.3 -20.4°
